EAA6009 SBRF-SBAR

Flight info

Callsign EAA6009
Flight time 1h 33m
Altitude 8000
Route MEXAR
Aircraft C208/L-SDFGR/C

Departure

Time 2026-05-04 05:39
Airport Recife/Guararapes - Gilberto Freyre International Airport (SBRF)

Arrival

Time 2026-05-04 07:12
Airport Aracaju - Santa Maria Airport (SBAR)
Time Latitude Longitude Altitude Speed Heading
2026-05-04 05:26 -8.12493 -34.92136 35 ft 0 kts 304°
2026-05-04 05:32 -8.12478 -34.92143 35 ft 10 kts 346°
2026-05-04 05:33 -8.12479 -34.92084 35 ft 9 kts 207°
2026-05-04 05:33 -8.12535 -34.92119 35 ft 10 kts 213°
2026-05-04 05:33 -8.12581 -34.92172 36 ft 11 kts 264°
2026-05-04 05:33 -8.12527 -34.92216 36 ft 14 kts 342°
2026-05-04 05:34 -8.12417 -34.92249 35 ft 18 kts 343°
2026-05-04 05:34 -8.12282 -34.92291 34 ft 22 kts 343°
2026-05-04 05:34 -8.12132 -34.92337 33 ft 23 kts 343°
2026-05-04 05:34 -8.11986 -34.92387 32 ft 22 kts 340°
2026-05-04 05:35 -8.11845 -34.92430 32 ft 21 kts 342°
2026-05-04 05:35 -8.11712 -34.92474 31 ft 20 kts 341°
2026-05-04 05:35 -8.11603 -34.92518 31 ft 0 kts 322°
2026-05-04 05:37 -8.11597 -34.92523 31 ft 11 kts 321°
2026-05-04 05:37 -8.11494 -34.92608 31 ft 25 kts 322°
2026-05-04 05:37 -8.11447 -34.92699 31 ft 9 kts 223°
2026-05-04 05:38 -8.12098 -34.92496 33 ft 108 kts 162°
2026-05-04 05:38 -8.12882 -34.92245 228 ft 120 kts 163°
2026-05-04 05:38 -8.13699 -34.92350 380 ft 128 kts 220°
2026-05-04 05:38 -8.13963 -34.93178 526 ft 132 kts 283°
2026-05-04 05:39 -8.13651 -34.94048 681 ft 133 kts 276°
2026-05-04 05:39 -8.14723 -34.95471 978 ft 135 kts 216°
2026-05-04 05:39 -8.15499 -34.96009 1138 ft 136 kts 215°
2026-05-04 05:40 -8.17052 -34.97073 1429 ft 134 kts 215°
2026-05-04 05:40 -8.17821 -34.97598 1579 ft 134 kts 214°
2026-05-04 05:40 -8.18590 -34.98123 1724 ft 134 kts 215°
2026-05-04 05:41 -8.19359 -34.98651 1878 ft 134 kts 215°
2026-05-04 05:41 -8.20132 -34.99176 2030 ft 134 kts 215°
2026-05-04 05:41 -8.20903 -34.99705 2187 ft 132 kts 215°
2026-05-04 05:41 -8.21657 -35.00172 2498 ft 123 kts 206°
2026-05-04 05:42 -8.22366 -35.00598 2802 ft 116 kts 213°
2026-05-04 05:42 -8.23120 -35.00886 3118 ft 116 kts 200°
2026-05-04 05:42 -8.23865 -35.01161 3431 ft 115 kts 200°
2026-05-04 05:42 -8.24620 -35.01436 3760 ft 113 kts 200°
2026-05-04 05:43 -8.25342 -35.01701 4068 ft 111 kts 201°
2026-05-04 05:43 -8.26065 -35.01965 4389 ft 111 kts 200°
2026-05-04 05:43 -8.26794 -35.02238 4711 ft 110 kts 205°
2026-05-04 05:45 -8.30883 -35.05395 6930 ft 99 kts 218°
2026-05-04 05:45 -8.31419 -35.05819 7242 ft 97 kts 218°
2026-05-04 05:47 -8.35967 -35.09411 8008 ft 144 kts 219°
2026-05-04 05:47 -8.36760 -35.10037 8009 ft 145 kts 219°
2026-05-04 05:47 -8.37557 -35.10664 8008 ft 145 kts 219°
2026-05-04 05:48 -8.38354 -35.11293 8009 ft 145 kts 219°
2026-05-04 05:48 -8.39152 -35.11921 8007 ft 146 kts 219°
2026-05-04 05:48 -8.39951 -35.12551 8006 ft 146 kts 219°
2026-05-04 05:48 -8.40750 -35.13180 8005 ft 146 kts 219°
2026-05-04 05:49 -8.41547 -35.13808 8005 ft 145 kts 219°
2026-05-04 05:49 -8.42343 -35.14436 8005 ft 145 kts 219°
2026-05-04 05:49 -8.43129 -35.15055 8001 ft 145 kts 219°
2026-05-04 05:49 -8.43923 -35.15680 8006 ft 145 kts 218°
2026-05-04 05:51 -8.49240 -35.19865 8007 ft 145 kts 219°
2026-05-04 05:51 -8.50035 -35.20492 8006 ft 145 kts 219°
2026-05-04 05:52 -8.50833 -35.21118 8007 ft 145 kts 219°
2026-05-04 05:52 -8.51630 -35.21746 8008 ft 146 kts 219°
2026-05-04 05:52 -8.52428 -35.22376 8008 ft 146 kts 219°
2026-05-04 05:52 -8.53229 -35.23007 8007 ft 146 kts 219°
2026-05-04 05:53 -8.54029 -35.23634 8009 ft 146 kts 219°
2026-05-04 05:54 -8.59622 -35.28033 8006 ft 145 kts 219°
2026-05-04 05:55 -8.60420 -35.28659 8007 ft 145 kts 219°
2026-05-04 05:55 -8.61219 -35.29287 8006 ft 146 kts 219°
2026-05-04 05:55 -8.62017 -35.29914 8007 ft 145 kts 219°
2026-05-04 05:55 -8.62814 -35.30540 8006 ft 145 kts 219°
2026-05-04 05:56 -8.63613 -35.31167 8008 ft 146 kts 219°
2026-05-04 05:56 -8.64412 -35.31795 8006 ft 145 kts 219°
2026-05-04 05:56 -8.65210 -35.32422 8007 ft 145 kts 219°
2026-05-04 05:56 -8.66007 -35.33047 8005 ft 145 kts 219°
2026-05-04 05:57 -8.66805 -35.33674 8006 ft 146 kts 218°
2026-05-04 05:57 -8.67604 -35.34301 8007 ft 145 kts 218°
2026-05-04 05:57 -8.68403 -35.34929 8007 ft 145 kts 219°
2026-05-04 05:57 -8.69201 -35.35554 8005 ft 145 kts 219°
2026-05-04 05:58 -8.69997 -35.36179 8005 ft 145 kts 218°
2026-05-04 05:58 -8.70784 -35.36797 8007 ft 145 kts 219°
2026-05-04 05:58 -8.71593 -35.37431 8006 ft 145 kts 219°
2026-05-04 05:58 -8.72382 -35.38050 8005 ft 145 kts 218°
2026-05-04 05:59 -8.73181 -35.38675 8007 ft 146 kts 218°
2026-05-04 05:59 -8.73980 -35.39303 8006 ft 145 kts 218°
2026-05-04 05:59 -8.74781 -35.39931 8006 ft 146 kts 219°
2026-05-04 05:59 -8.75580 -35.40558 8007 ft 146 kts 218°
2026-05-04 06:00 -8.76379 -35.41185 8004 ft 146 kts 218°
2026-05-04 06:00 -8.77180 -35.41812 8004 ft 145 kts 219°
2026-05-04 06:00 -8.77978 -35.42437 8004 ft 145 kts 219°
2026-05-04 06:00 -8.78778 -35.43065 8006 ft 146 kts 219°
2026-05-04 06:01 -8.79579 -35.43693 8007 ft 146 kts 219°
2026-05-04 06:01 -8.80382 -35.44321 8008 ft 146 kts 218°
2026-05-04 06:03 -8.85998 -35.48723 8004 ft 146 kts 218°
2026-05-04 06:03 -8.86802 -35.49352 7994 ft 146 kts 218°
2026-05-04 06:05 -8.92391 -35.53725 8006 ft 146 kts 218°
2026-05-04 06:05 -8.93998 -35.54983 8006 ft 146 kts 218°
2026-05-04 06:05 -8.94799 -35.55610 8005 ft 146 kts 218°
2026-05-04 06:06 -8.95599 -35.56236 8005 ft 146 kts 219°
2026-05-04 06:06 -8.96400 -35.56861 8004 ft 145 kts 218°
2026-05-04 06:06 -8.97199 -35.57485 8004 ft 145 kts 218°
2026-05-04 06:06 -8.97998 -35.58109 8005 ft 145 kts 218°
2026-05-04 06:07 -8.98799 -35.58735 8004 ft 145 kts 218°
2026-05-04 06:07 -8.99599 -35.59360 8007 ft 146 kts 218°
2026-05-04 06:07 -9.00402 -35.59988 8007 ft 146 kts 218°
2026-05-04 06:07 -9.01205 -35.60618 8006 ft 146 kts 219°
2026-05-04 06:08 -9.02006 -35.61245 8005 ft 145 kts 218°
2026-05-04 06:08 -9.02808 -35.61870 8004 ft 145 kts 218°
2026-05-04 06:08 -9.03607 -35.62495 8004 ft 145 kts 218°
2026-05-04 06:08 -9.04407 -35.63120 8004 ft 145 kts 218°
2026-05-04 06:09 -9.05206 -35.63744 8004 ft 145 kts 218°
2026-05-04 06:09 -9.06006 -35.64370 8004 ft 146 kts 218°
2026-05-04 06:11 -9.11628 -35.68759 8006 ft 146 kts 218°
2026-05-04 06:11 -9.12433 -35.69388 8005 ft 146 kts 218°
2026-05-04 06:13 -9.18051 -35.73770 8005 ft 146 kts 218°
2026-05-04 06:14 -9.22870 -35.77527 8007 ft 146 kts 218°
2026-05-04 06:14 -9.23675 -35.78154 8003 ft 146 kts 218°
2026-05-04 06:15 -9.24476 -35.78780 8002 ft 145 kts 218°
2026-05-04 06:15 -9.25278 -35.79403 8001 ft 145 kts 218°
2026-05-04 06:15 -9.26079 -35.80026 8002 ft 145 kts 218°
2026-05-04 06:15 -9.26879 -35.80648 8003 ft 145 kts 218°
2026-05-04 06:16 -9.27669 -35.81264 8005 ft 146 kts 218°
2026-05-04 06:16 -9.28475 -35.81891 8008 ft 146 kts 218°
2026-05-04 06:16 -9.29279 -35.82517 8007 ft 146 kts 218°
2026-05-04 06:16 -9.30083 -35.83143 8007 ft 146 kts 218°
2026-05-04 06:17 -9.30887 -35.83771 8004 ft 146 kts 218°
2026-05-04 06:17 -9.31691 -35.84396 8007 ft 146 kts 218°
2026-05-04 06:17 -9.32498 -35.85026 8004 ft 146 kts 218°
2026-05-04 06:17 -9.33303 -35.85652 8005 ft 146 kts 218°
2026-05-04 06:18 -9.34109 -35.86279 8007 ft 146 kts 218°
2026-05-04 06:18 -9.34915 -35.86906 8007 ft 146 kts 218°
2026-05-04 06:18 -9.35720 -35.87533 8005 ft 146 kts 218°
2026-05-04 06:20 -9.41346 -35.91908 8002 ft 145 kts 218°
2026-05-04 06:20 -9.42149 -35.92532 8007 ft 146 kts 218°
2026-05-04 06:21 -9.45364 -35.95031 8005 ft 146 kts 218°
2026-05-04 06:21 -9.46170 -35.95657 8007 ft 146 kts 218°
2026-05-04 06:22 -9.46977 -35.96283 8005 ft 146 kts 218°
2026-05-04 06:22 -9.47783 -35.96909 8004 ft 146 kts 218°
2026-05-04 06:25 -9.58270 -36.05052 8004 ft 146 kts 218°
2026-05-04 06:25 -9.59075 -36.05677 8005 ft 146 kts 218°
2026-05-04 06:26 -9.59881 -36.06301 8005 ft 146 kts 218°
2026-05-04 06:26 -9.60688 -36.06927 8004 ft 146 kts 218°
2026-05-04 06:26 -9.61495 -36.07553 8003 ft 146 kts 218°
2026-05-04 06:26 -9.62299 -36.08177 8003 ft 145 kts 218°
2026-05-04 06:27 -9.65518 -36.10673 7997 ft 146 kts 219°
2026-05-04 06:28 -9.66316 -36.11293 7998 ft 147 kts 218°
2026-05-04 06:28 -9.67115 -36.11947 7997 ft 145 kts 228°
2026-05-04 06:28 -9.67700 -36.12772 7995 ft 144 kts 230°
2026-05-04 06:28 -9.68371 -36.13514 7996 ft 145 kts 228°
2026-05-04 06:29 -9.69057 -36.14268 8000 ft 145 kts 228°
2026-05-04 06:29 -9.69740 -36.15022 7999 ft 145 kts 228°
2026-05-04 06:29 -9.70422 -36.15776 7999 ft 145 kts 228°
2026-05-04 06:29 -9.71106 -36.16533 7964 ft 151 kts 228°
2026-05-04 06:30 -9.71833 -36.17335 7989 ft 157 kts 228°
2026-05-04 06:30 -9.72582 -36.18163 7993 ft 161 kts 228°
2026-05-04 06:30 -9.73347 -36.19011 7998 ft 164 kts 228°
2026-05-04 06:30 -9.74125 -36.19870 8005 ft 166 kts 228°
2026-05-04 06:31 -9.74906 -36.20735 8007 ft 166 kts 228°
2026-05-04 06:31 -9.75688 -36.21600 8010 ft 167 kts 228°
2026-05-04 06:31 -9.76473 -36.22470 8010 ft 168 kts 228°
2026-05-04 06:31 -9.77264 -36.23347 8005 ft 168 kts 228°
2026-05-04 06:32 -9.78050 -36.24217 8005 ft 167 kts 228°
2026-05-04 06:33 -9.83531 -36.30284 8000 ft 165 kts 228°
2026-05-04 06:34 -9.84310 -36.31145 7999 ft 166 kts 228°
2026-05-04 06:34 -9.85088 -36.32005 8000 ft 166 kts 228°
2026-05-04 06:34 -9.85867 -36.32867 8000 ft 166 kts 228°
2026-05-04 06:34 -9.86646 -36.33730 7998 ft 166 kts 228°
2026-05-04 06:35 -9.87426 -36.34592 8000 ft 166 kts 228°
2026-05-04 06:36 -9.92870 -36.40607 7997 ft 166 kts 228°
2026-05-04 06:37 -9.93649 -36.41468 7997 ft 166 kts 228°
2026-05-04 06:37 -9.94427 -36.42329 7997 ft 165 kts 228°
2026-05-04 06:37 -9.95205 -36.43188 7997 ft 166 kts 228°
2026-05-04 06:37 -9.95721 -36.43758 7996 ft 165 kts 228°
2026-05-04 06:38 -9.96762 -36.44907 7996 ft 165 kts 228°
2026-05-04 06:38 -9.97540 -36.45766 7995 ft 166 kts 228°
2026-05-04 06:40 -10.02732 -36.51497 7994 ft 166 kts 228°
2026-05-04 06:40 -10.03512 -36.52359 7996 ft 165 kts 228°
2026-05-04 06:40 -10.04292 -36.53219 7994 ft 166 kts 228°
2026-05-04 06:40 -10.05069 -36.54077 7995 ft 165 kts 228°
2026-05-04 06:41 -10.05849 -36.54937 7994 ft 166 kts 228°
2026-05-04 06:41 -10.06629 -36.55798 7994 ft 166 kts 228°
2026-05-04 06:41 -10.07410 -36.56659 7995 ft 166 kts 228°
2026-05-04 06:41 -10.08193 -36.57523 7996 ft 166 kts 228°
2026-05-04 06:42 -10.08977 -36.58387 7995 ft 166 kts 228°
2026-05-04 06:42 -10.09758 -36.59249 7995 ft 166 kts 228°
2026-05-04 06:42 -10.10539 -36.60112 7994 ft 166 kts 228°
2026-05-04 06:44 -10.16327 -36.65797 7992 ft 165 kts 223°
2026-05-04 06:44 -10.17178 -36.66583 7992 ft 165 kts 223°
2026-05-04 06:44 -10.18030 -36.67369 7992 ft 166 kts 223°
2026-05-04 06:45 -10.18871 -36.68146 7993 ft 166 kts 223°
2026-05-04 06:45 -10.19723 -36.68933 7991 ft 166 kts 223°
2026-05-04 06:45 -10.20576 -36.69721 7992 ft 166 kts 223°
2026-05-04 06:45 -10.21429 -36.70509 7992 ft 166 kts 223°
2026-05-04 06:46 -10.22282 -36.71295 7991 ft 166 kts 223°
2026-05-04 06:46 -10.23133 -36.72081 7992 ft 165 kts 223°
2026-05-04 06:46 -10.23984 -36.72866 7994 ft 166 kts 223°
2026-05-04 06:46 -10.24837 -36.73653 7993 ft 166 kts 223°
2026-05-04 06:48 -10.30809 -36.79164 7992 ft 166 kts 223°
2026-05-04 06:48 -10.31650 -36.79941 7992 ft 166 kts 223°
2026-05-04 06:49 -10.32503 -36.80727 7991 ft 165 kts 223°
2026-05-04 06:50 -10.38460 -36.86221 7993 ft 165 kts 223°
2026-05-04 06:51 -10.39313 -36.87007 7993 ft 166 kts 223°
2026-05-04 06:51 -10.40167 -36.87794 7994 ft 166 kts 223°
2026-05-04 06:51 -10.41022 -36.88583 7993 ft 166 kts 223°
2026-05-04 06:51 -10.41876 -36.89370 7994 ft 166 kts 223°
2026-05-04 06:52 -10.42733 -36.90159 7994 ft 166 kts 223°
2026-05-04 06:52 -10.43585 -36.90944 7992 ft 166 kts 223°
2026-05-04 06:52 -10.44441 -36.91733 7992 ft 165 kts 223°
2026-05-04 06:52 -10.45293 -36.92518 7991 ft 165 kts 223°
2026-05-04 06:53 -10.46143 -36.93301 7990 ft 165 kts 223°
2026-05-04 06:53 -10.46993 -36.94082 7994 ft 165 kts 223°
2026-05-04 06:53 -10.47843 -36.94866 7993 ft 165 kts 223°
2026-05-04 06:53 -10.48696 -36.95652 7992 ft 165 kts 223°
2026-05-04 06:54 -10.49548 -36.96436 7992 ft 165 kts 223°
2026-05-04 06:54 -10.50400 -36.97220 7994 ft 165 kts 223°
2026-05-04 06:54 -10.51253 -36.98005 7992 ft 165 kts 223°
2026-05-04 06:54 -10.52107 -36.98791 7992 ft 166 kts 223°
2026-05-04 06:55 -10.52960 -36.99576 7992 ft 165 kts 223°
2026-05-04 06:55 -10.53812 -37.00360 7991 ft 165 kts 223°
2026-05-04 06:55 -10.54664 -37.01145 7992 ft 165 kts 223°
2026-05-04 06:55 -10.55518 -37.01931 7993 ft 166 kts 223°
2026-05-04 06:56 -10.56375 -37.02720 7994 ft 166 kts 223°
2026-05-04 06:57 -10.62360 -37.08227 7992 ft 166 kts 223°
2026-05-04 06:58 -10.63217 -37.09014 7990 ft 166 kts 223°
2026-05-04 06:58 -10.64074 -37.09802 7992 ft 166 kts 223°
2026-05-04 06:58 -10.64931 -37.10592 7994 ft 167 kts 223°
2026-05-04 06:58 -10.65790 -37.11381 7994 ft 166 kts 223°
2026-05-04 06:59 -10.66646 -37.12162 7993 ft 165 kts 221°
2026-05-04 06:59 -10.67621 -37.12775 7995 ft 165 kts 208°
2026-05-04 06:59 -10.68654 -37.13312 7887 ft 172 kts 208°
2026-05-04 06:59 -10.69737 -37.13881 7595 ft 176 kts 208°
2026-05-04 07:01 -10.77103 -37.17699 5233 ft 167 kts 208°
2026-05-04 07:01 -10.78138 -37.18236 4859 ft 166 kts 208°
2026-05-04 07:02 -10.79171 -37.18770 4487 ft 167 kts 208°
2026-05-04 07:02 -10.80205 -37.19306 4109 ft 166 kts 208°
2026-05-04 07:02 -10.81188 -37.19812 3999 ft 152 kts 208°
2026-05-04 07:02 -10.82092 -37.20273 3987 ft 140 kts 208°
2026-05-04 07:03 -10.82943 -37.20705 3985 ft 136 kts 208°
2026-05-04 07:03 -10.83802 -37.21145 4000 ft 136 kts 208°
2026-05-04 07:03 -10.84655 -37.21582 3996 ft 138 kts 208°
2026-05-04 07:03 -10.85511 -37.22020 3991 ft 138 kts 208°
2026-05-04 07:04 -10.86354 -37.22451 4000 ft 138 kts 207°
2026-05-04 07:04 -10.87210 -37.22889 3998 ft 137 kts 208°
2026-05-04 07:04 -10.88064 -37.23325 3997 ft 138 kts 208°
2026-05-04 07:04 -10.88924 -37.23766 4001 ft 139 kts 207°
2026-05-04 07:05 -10.89793 -37.24211 3999 ft 139 kts 208°
2026-05-04 07:05 -10.90651 -37.24650 3998 ft 138 kts 208°
2026-05-04 07:05 -10.91504 -37.25087 3993 ft 138 kts 207°
2026-05-04 07:05 -10.92360 -37.25526 3995 ft 138 kts 208°
2026-05-04 07:06 -10.94165 -37.26301 3725 ft 152 kts 183°
2026-05-04 07:06 -10.95170 -37.25944 3479 ft 160 kts 141°
2026-05-04 07:06 -10.95898 -37.25063 3245 ft 164 kts 128°
2026-05-04 07:07 -10.96592 -37.24136 3013 ft 166 kts 128°
2026-05-04 07:08 -10.98678 -37.16767 1992 ft 146 kts 88°
2026-05-04 07:09 -10.98631 -37.15735 1991 ft 146 kts 88°
2026-05-04 07:09 -10.98588 -37.14705 1990 ft 146 kts 88°
2026-05-04 07:09 -10.98545 -37.13686 1997 ft 143 kts 88°
2026-05-04 07:09 -10.98500 -37.12674 1918 ft 148 kts 88°
2026-05-04 07:10 -10.98490 -37.11724 1846 ft 110 kts 93°
2026-05-04 07:10 -10.98466 -37.11004 1538 ft 92 kts 78°
2026-05-04 07:12 -10.98400 -37.07250 30 ft 15 kts 116°
2026-05-04 07:12 -10.98472 -37.07232 31 ft 12 kts 182°
2026-05-04 07:12 -10.98555 -37.07236 31 ft 12 kts 191°
2026-05-04 07:12 -10.98633 -37.07274 31 ft 8 kts 184°
2026-05-04 07:13 -10.98635 -37.07274 31 ft 0 kts 179°